EW2835 Weather Reports


Display with metric or nautical units.
time (UTC)temp
F
wind
direction
speed
MPH
gust
MPH
rain 1hr
in
rain 24hr
in
rain mn
in
humidity
%
barometer
mb
20260503204509 67 290 0.0 0.0 0.00 0.00 0.00 54 1010.0
20260503203018 68 290 0.0 0.0 0.00 0.00 0.00 49 1010.1
20260503201506 69 290 0.0 2.0 0.00 0.00 0.00 46 1009.8
20260503200007 70 265 0.0 5.0 0.00 0.00 0.00 46 1010.0
20260503194506 69 263 1.0 4.0 0.00 0.00 0.00 46 1009.9
20260503193006 67 281 1.0 6.0 0.00 0.00 0.00 51 1010.0
20260503191510 67 169 0.0 0.0 0.00 0.00 0.00 57 1009.7
20260503190002 68 169 0.0 0.0 0.00 0.00 0.00 55 1009.7
20260503184502 69 169 0.0 0.0 0.00 0.00 0.00 53 1009.5
20260503183001 70 169 0.0 0.0 0.00 0.00 0.00 52 1009.4
20260503181611 71 169 0.0 0.0 0.00 0.00 0.00 48 1009.3
20260503180100 72 169 0.0 0.0 0.00 0.00 0.00 47 1009.3
20260503174559 74 169 0.0 0.0 0.00 0.00 0.00 44 1009.3
20260503173103 76 169 0.0 1.0 0.00 0.00 0.00 40 1009.3
20260503171558 77 204 0.0 2.0 0.00 0.00 0.00 36 1009.3
20260503081624 75 174 1.0 6.0 0.00 0.00 0.00 43 1013.1
20260503080109 74 188 3.0 6.0 0.00 0.00 0.00 43 1013.2
20260503071537 70 167 2.0 4.0 0.00 0.00 0.00 48 1013.3
20260503054515 59 170 0.0 1.0 0.00 0.00 0.00 63 1013.3
20260503053006 57 142 0.0 3.0 0.00 0.00 0.00 68 1013.4
20260503051501 55 130 0.0 2.0 0.00 0.00 0.00 71 1013.4
20260503050057 53 194 0.0 0.0 0.00 0.00 0.00 76 1013.3
20260503044557 50 191 0.0 2.0 0.00 0.00 0.00 79 1013.3
20260503043050 49 181 0.0 2.0 0.00 0.00 0.00 82 1013.2
20260503041550 46 205 0.0 1.0 0.00 0.00 0.00 87 1013.4
20260503040049 46 172 0.0 0.0 0.00 0.00 0.00 85 1013.5
20260503034549 46 172 0.0 0.0 0.00 0.00 0.00 85 1013.4
20260503033058 46 172 0.0 0.0 0.00 0.00 0.00 85 1013.4
20260503031552 46 172 0.0 0.0 0.00 0.00 0.00 85 1013.4
20260503030036 47 172 0.0 0.0 0.00 0.00 0.00 84 1013.3
20260503024534 47 172 0.0 0.0 0.00 0.00 0.00 83 1013.5
20260503023033 47 172 0.0 0.0 0.00 0.00 0.00 83 1013.6
20260503021531 48 172 0.0 0.0 0.00 0.00 0.00 82 1013.6
20260503020029 48 172 0.0 0.0 0.00 0.00 0.00 81 1013.7
20260503014538 48 172 0.0 0.0 0.00 0.00 0.00 81 1013.7
20260503013027 48 172 0.0 0.0 0.00 0.00 0.00 80 1013.8
20260503011522 49 172 0.0 0.0 0.00 0.00 0.00 80 1013.8
20260503010021 49 172 0.0 0.0 0.00 0.00 0.00 79 1014.0
20260503004521 49 172 0.0 0.0 0.00 0.00 0.00 79 1014.0
20260503003018 49 172 0.0 0.0 0.00 0.00 0.00 79 1014.2
20260503001517 50 172 0.0 0.0 0.00 0.00 0.00 79 1014.2
20260503000016 50 172 0.0 0.0 0.00 0.00 0.00 79 1014.4
20260502234514 50 172 0.0 0.0 0.00 0.00 0.00 79 1014.5
20260502233013 50 172 0.0 0.0 0.00 0.00 0.00 78 1014.5
20260502231511 50 172 0.0 0.0 0.00 0.00 0.00 78 1014.7
20260502230010 50 172 0.0 1.0 0.00 0.00 0.00 77 1014.8
20260502224508 51 172 0.0 1.0 0.00 0.00 0.00 77 1015.0
20260502223004 51 172 0.0 0.0 0.00 0.00 0.00 76 1015.0
20260502221502 52 172 0.0 0.0 0.00 0.00 0.00 76 1015.1
20260502220105 52 172 0.0 1.0 0.00 0.00 0.00 75 1015.1
20260502214607 52 172 0.0 0.0 0.00 0.00 0.00 74 1015.2
20260502213057 53 172 0.0 0.0 0.00 0.00 0.00 73 1015.3
20260502211559 54 172 0.0 0.0 0.00 0.00 0.00 72 1015.4
20260502210054 55 172 0.0 0.0 0.00 0.00 0.00 70 1015.5